Limon, CO

10:31 PM MDT on March 24, 2017 (GMT -0600)
Limon Municipal

Weather History for KLIC - August, 2013

Change the Weather History Date:

Sunday, August 4, 2013

  Actual Average Record
Temperature  
Mean Temperature 72 °F -  
Max Temperature 83 °F - 95 °F (2008)
Min Temperature 60 °F - 47 °F (2015)
Degree Days  
Heating Degree Days 0    
Month to date heating degree days 0  
Cooling Degree Days 7    
Month to date cooling degree days 33  
Growing Degree Days 21 (Base 50)    
Moisture  
Dew Point 61 °F    
Average Humidity 72    
Maximum Humidity 100    
Minimum Humidity 43    
Precipitation  
Precipitation 0.00 in - 0.79 in (1999)
Month to date precipitation 0.45  
Year to date precipitation 9.56  
Sea Level Pressure  
Sea Level Pressure 30.09 in    
Wind  
Wind Speed 7 mph (SSE)    
Max Wind Speed 18 mph    
Max Gust Speed 23 mph    
Visibility 9 miles    
Events      
T = Trace of Precipitation, MM = Missing Value Source: NWS Daily Summary

Daily Weather History Graph

Daily Weather History Graph

Search for Another Location

Airport or City:

Trip Planner

Search our weather history database for the weather conditions in past years. The results will help you decide how hot, cold, wet, or windy it might be!

Date:

Astronomy

Aug. 04, 2013 Rise Set
Actual Time 5:57 AM MDT 8:03 PM MDT
Civil Twilight 5:28 AM MDT 8:32 PM MDT
Nautical Twilight 4:51 AM MDT 9:08 PM MDT
Astronomical Twilight 4:12 AM MDT 9:47 PM MDT
Moon 4:00 AM MDT (8/4) 6:27 PM MDT (8/4)
Length of Visible Light 15h 04m
Length of Day
14h 05m
Waning Crescent, 4% of the Moon is Illuminated
Aug 4
Waning Crescent
Aug 6
New
Aug 14
First Quarter
Aug 20
Full
Aug 28
Last Quarter

Hourly Weather History & Observations

Time (MDT) Temp. Heat Index Dew Point Humidity Pressure Visibility Wind Dir Wind Speed Gust Speed Precip Events Conditions
12:51 AM 62.6 °F - 60.8 °F 94% 30.22 in 10.0 mi South 4.6 mph - N/A   Scattered Clouds
12:55 AM 62.1 °F - 61.0 °F 96% 29.99 in 10.0 mi SSE 4.6 mph - N/A   Scattered Clouds
1:42 AM 62.6 °F - 62.6 °F 100% 30.23 in 6.0 mi South 9.2 mph - N/A   Mostly Cloudy
1:55 AM 62.1 °F - 62.1 °F 100% 30.01 in 9.0 mi South 5.8 mph - N/A   Overcast
2:16 AM 62.6 °F - 62.6 °F 100% 30.23 in 10.0 mi SSE 6.9 mph - N/A   Mostly Cloudy
2:24 AM 62.6 °F - 62.6 °F 100% 30.23 in 10.0 mi SSE 5.8 mph - N/A   Mostly Cloudy
2:55 AM 62.1 °F - 61.0 °F 96% 30.00 in 10.0 mi South 5.8 mph - N/A   Mostly Cloudy
3:04 AM 62.6 °F - 60.8 °F 94% 30.22 in 10.0 mi South 8.1 mph - N/A   Scattered Clouds
3:55 AM 61.0 °F - 60.1 °F 97% 29.98 in 10.0 mi SSE 4.6 mph - N/A   Clear
4:23 AM 62.6 °F - 62.6 °F 100% 30.21 in 9.0 mi SE 6.9 mph - N/A   Mostly Cloudy
4:55 AM 62.1 °F - 62.1 °F 100% 29.99 in 10.0 mi SSE 6.9 mph - N/A   Mostly Cloudy
5:10 AM 60.8 °F - 60.8 °F 100% 30.20 in 10.0 mi SSE 4.6 mph - N/A   Scattered Clouds
5:23 AM 60.8 °F - 60.8 °F 100% 30.20 in 10.0 mi SE 5.8 mph - N/A   Scattered Clouds
5:32 AM 60.8 °F - 60.8 °F 100% 30.20 in 10.0 mi SE 8.1 mph - N/A   Mostly Cloudy
5:42 AM 60.8 °F - 60.8 °F 100% 30.20 in 10.0 mi SSE 8.1 mph - N/A   Overcast
5:55 AM 61.0 °F - 61.0 °F 100% 30.01 in 10.0 mi South 8.1 mph - N/A   Overcast
6:53 AM 60.8 °F - 60.8 °F 100% 30.21 in 2.0 mi South 3.5 mph - N/A   Overcast
6:55 AM 61.0 °F - 61.0 °F 100% 30.03 in 2.5 mi SSE 5.8 mph - N/A   Overcast
7:06 AM 60.8 °F - 60.8 °F 100% 30.20 in 1.5 mi SSE 6.9 mph - N/A   Overcast
7:19 AM 60.8 °F - 60.8 °F 100% 30.21 in 3.0 mi SE 5.8 mph - N/A   Overcast
7:55 AM 64.0 °F - 62.1 °F 93% 30.03 in 10.0 mi SE 6.9 mph - N/A   Mostly Cloudy
8:21 AM 64.4 °F - 62.6 °F 94% 30.22 in 10.0 mi SSE 10.4 mph - N/A   Mostly Cloudy
8:55 AM 66.9 °F - 63.0 °F 87% 30.04 in 10.0 mi SE 12.7 mph - N/A   Mostly Cloudy
9:16 AM 68.0 °F - 62.6 °F 83% 30.22 in 10.0 mi SSE 12.7 mph - N/A   Scattered Clouds
9:48 AM 68.0 °F - 62.6 °F 83% 30.22 in 10.0 mi SSE 11.5 mph 18.4 mph N/A   Mostly Cloudy
9:55 AM 68.0 °F - 62.1 °F 81% 30.03 in 10.0 mi SSE 11.5 mph 18.4 mph N/A   Mostly Cloudy
10:02 AM 68.0 °F - 62.6 °F 83% 30.22 in 10.0 mi SSE 10.4 mph - N/A   Mostly Cloudy
10:09 AM 69.8 °F - 62.6 °F 78% 30.22 in 10.0 mi SSE 10.4 mph - N/A   Mostly Cloudy
10:48 AM 69.8 °F - 62.6 °F 78% 30.22 in 10.0 mi SSE 11.5 mph 19.6 mph N/A   Scattered Clouds
10:55 AM 70.0 °F - 63.0 °F 78% 30.02 in 10.0 mi SE 11.5 mph 19.6 mph N/A   Scattered Clouds
11:55 AM 72.0 °F - 64.0 °F 76% 30.02 in 10.0 mi SE 12.7 mph - N/A   Partly Cloudy
12:55 PM 73.9 °F - 64.9 °F 73% 30.00 in 10.0 mi SE 11.5 mph - N/A   Clear
1:55 PM 77.0 °F - 64.0 °F 64% 29.97 in 10.0 mi SE 12.7 mph 17.3 mph N/A   Clear
2:55 PM 79.0 °F - 62.1 °F 56% 29.94 in 10.0 mi South 4.6 mph - N/A   Clear
3:55 PM 82.9 °F 82.6 °F 57.9 °F 42% 29.92 in 10.0 mi ESE 3.5 mph - N/A   Clear
4:55 PM 78.1 °F - 59.0 °F 52% 29.93 in 10.0 mi SE 6.9 mph - N/A   Clear
5:55 PM 75.9 °F - 60.1 °F 58% 29.94 in 10.0 mi SE 8.1 mph - N/A   Clear
6:55 PM 75.0 °F - 62.1 °F 64% 29.95 in 10.0 mi South 5.8 mph - N/A   Clear
7:55 PM 73.0 °F - 64.0 °F 73% 29.98 in 10.0 mi SW 4.6 mph - N/A   Clear
8:55 PM 71.1 °F - 52.0 °F 51% 30.02 in 10.0 mi West 8.1 mph - N/A   Mostly Cloudy
9:55 PM 70.0 °F - 53.1 °F 55% 30.01 in 10.0 mi West 10.4 mph 20.7 mph N/A   Mostly Cloudy
10:55 PM 70.0 °F - 52.0 °F 53% 29.99 in 10.0 mi West 13.8 mph 19.6 mph N/A   Partly Cloudy
11:55 PM 71.1 °F - 50.0 °F 47% 29.94 in 10.0 mi WSW 13.8 mph - N/A   Clear